Camp Pendleton, CA

2:39 PM PDT on May 22, 2017 (GMT -0700)
Camp Pendleton Marine Corps Air Station

Weather History for KNFG - December, 2012

Change the Weather History Date:

Tuesday, December 11, 2012

  Actual Average Record
Temperature  
Mean Temperature 54 °F -  
Max Temperature 72 °F 66 °F 80 °F (2004)
Min Temperature 35 °F 38 °F 28 °F (1998)
Degree Days  
Heating Degree Days 12    
Growing Degree Days 4 (Base 50)    
Moisture  
Dew Point 38 °F    
Average Humidity 64    
Maximum Humidity 80    
Minimum Humidity 25    
Precipitation  
Precipitation 0.00 in - - ()
Sea Level Pressure  
Sea Level Pressure 30.01 in    
Wind  
Wind Speed 2 mph (SE)    
Max Wind Speed 9 mph    
Max Gust Speed -    
Visibility 10 miles    
Events      
Averages and records for this station are not official NWS values.
T = Trace of Precipitation, MM = Missing Value Source: NWS Daily Summary

Daily Weather History Graph

Daily Weather History Graph

Search for Another Location

Airport or City:

Trip Planner

Search our weather history database for the weather conditions in past years. The results will help you decide how hot, cold, wet, or windy it might be!

Date:

Astronomy

Dec. 11, 2012 Rise Set
Actual Time 6:43 AM PST 4:42 PM PST
Civil Twilight 6:15 AM PST 5:09 PM PST
Nautical Twilight 5:45 AM PST 5:40 PM PST
Astronomical Twilight 5:14 AM PST 6:11 PM PST
Moon 4:46 AM PST (12/11) 3:23 PM PST (12/11)
Length of Visible Light 10h 54m
Length of Day
9h 59m
Waning Crescent, 4% of the Moon is Illuminated
Dec 11
Waning Crescent
Dec 13
New
Dec 19
First Quarter
Dec 28
Full
Jan 4
Last Quarter

Hourly Weather History & Observations

Time (PST) Temp. Windchill Dew Point Humidity Pressure Visibility Wind Dir Wind Speed Gust Speed Precip Events Conditions
12:54 AM 43.0 °F 41.3 °F 37.0 °F 80% 30.06 in 10.0 mi NNE 3.5 mph - N/A   Clear
1:54 AM 39.9 °F 37.8 °F 34.0 °F 79% 30.06 in 10.0 mi NE 3.5 mph - N/A   Clear
2:54 AM 39.9 °F - 34.0 °F 79% 30.06 in 9.0 mi Calm Calm - N/A   Clear
3:54 AM 37.9 °F - 32.0 °F 79% 30.04 in 10.0 mi Calm Calm - N/A   Clear
4:54 AM 37.9 °F - 32.0 °F 79% 30.04 in 10.0 mi Calm Calm - N/A   Clear
5:54 AM 39.0 °F - 33.1 °F 79% 30.04 in 10.0 mi Calm Calm - N/A   Clear
6:54 AM 35.1 °F - 28.9 °F 78% 30.05 in 10.0 mi Calm Calm - N/A   Partly Cloudy
7:54 AM 44.1 °F - 36.0 °F 73% 30.06 in 10.0 mi Calm Calm - N/A   Scattered Clouds
8:54 AM 52.0 °F - 37.0 °F 57% 30.06 in 10.0 mi Calm Calm - N/A   Scattered Clouds
9:54 AM 62.1 °F - 37.0 °F 39% 30.05 in 10.0 mi Calm Calm - N/A   Scattered Clouds
10:54 AM 71.1 °F - 33.1 °F 25% 30.03 in 10.0 mi South 3.5 mph - N/A   Scattered Clouds
11:54 AM 72.0 °F - 37.9 °F 29% 29.99 in 10.0 mi SW 3.5 mph - N/A   Scattered Clouds
12:54 PM 71.1 °F - 37.9 °F 30% 29.97 in 10.0 mi South 6.9 mph - N/A   Partly Cloudy
1:54 PM 70.0 °F - 39.9 °F 33% 29.96 in 10.0 mi SSW 9.2 mph - N/A   Partly Cloudy
2:54 PM 68.0 °F - 43.0 °F 40% 29.96 in 10.0 mi SSW 8.1 mph - N/A   Clear
3:54 PM 64.9 °F - 44.1 °F 47% 29.96 in 10.0 mi South 8.1 mph - N/A   Clear
4:54 PM 61.0 °F - 46.9 °F 60% 29.96 in 10.0 mi South 3.5 mph - N/A   Clear
5:54 PM 53.1 °F - 44.1 °F 71% 29.98 in 10.0 mi Calm Calm - N/A   Clear
6:54 PM 50.0 °F - 42.1 °F 74% 29.99 in 10.0 mi Calm Calm - N/A   Clear
7:54 PM 48.9 °F - 42.1 °F 77% 30.00 in 10.0 mi NE 4.6 mph - N/A   Clear
8:16 PM 46.4 °F 45.2 °F 39.2 °F 76% 30.00 in 10.0 mi NNE 3.5 mph - N/A   Scattered Clouds
8:54 PM 46.9 °F - 41.0 °F 80% 30.00 in 10.0 mi Calm Calm - N/A   Scattered Clouds
9:54 PM 48.0 °F - 41.0 °F 77% 30.00 in 10.0 mi NE 3.5 mph - N/A   Scattered Clouds
10:54 PM 46.9 °F - 39.9 °F 77% 30.01 in 10.0 mi Calm Calm - N/A   Mostly Cloudy
11:14 PM 46.4 °F - 39.2 °F 76% 30.01 in 10.0 mi Calm Calm - N/A   Scattered Clouds
11:54 PM 46.9 °F - 39.9 °F 77% 30.01 in 10.0 mi North 3.5 mph - N/A   Scattered Clouds